Location: Unspecified
(0.0000°N, 0.0000°E)
Time: 03:22:27
(UTC+00:00)

CZ-3C DEB - Pass Details

Date: 22 February 2026
Orbit: 610 x 36841 km, 20.5° (Epoch: 4 October)

Event Time Altitude Azimuth Distance (km) Brightness Sun altitude
Rises 11:36:13 0° 291° (WNW) 13,185 ? 76.3°
Reaches altitude 10° 11:45:14 10° 294° (WNW) 14,438 ? 77.7°
Maximum altitude 13:34:41 39° 297° (WNW) 30,075 ? 67.4°
Drops below altitude 10° 18:21:51 10° 278° (W) 37,971 ? -2.1°
Sets 20:08:08 0° 270° (W) 27,749 ? -28.2°
